Location: Breitenfeld
(46.8500°N, 15.6333°E)
Time: 23:31:08
(UTC+00:00)

SPOT 5 - Pass Details

Date: 09 April 2020
Orbit: 624 x 814 km, 98.3° (Epoch: 03 June)

Event Time Altitude Azimuth Distance (km) Brightness Sun altitude
Exits shadow 20:31:35 59° 9° (N) 726 3.0 -26.2°
Drops below altitude 10° 20:35:11 10° 349° (N) 2,009 5.9 -26.6°
Sets 20:37:23 0° 348° (NNW) 2,927 7.0 -26.8°
